FENGYUN 1C DEB, 30010

Orbit data source: Space-Track

FENGYUN 1C DEB, 30010 is space debris in SSO originally from a launch on Mon, 10 May 1999 UTC launched from the Taiyaun Space Center, China (TSC). Fengyun 1C debris stems from the Chinese weather satellite Fengyun-1C, which was intentionally destroyed by a Chinese anti-satellite missile in 2007. This event dramatically increased the amount of space debris, with thousands of trackable fragments posing hazards to satellites and human spaceflight. The Fengyun 1C debris cloud has become a focal point in discussions about space sustainability and the need for international regulations to prevent the creation of new debris.

Loading next visibility...
Identifier
30010, 1999-025MK
Orbit
SSO
Country
Flag of CNCN / PRC
Related business
Manufacturer
Unknown
Mission
Spacecraft
Bus & Motor
Unknown
Mass
Unknown
Launch date (UTC)
1999-05-10 (27 years ago)
Launch vehicle
Unknown
Launch site
Taiyaun Space Center, China (TSC)
Object type
Payload
Rocket body
Debris
Shape & HBR
Unknown shape, 0.2 m
Radar Cross Section
Medium (>0.1 m² and <1 m²)

Expand to show TLE details & history
Last TLE update: 9 hours ago

TLE from 9 hours ago
0 FENGYUN 1C DEB
1 30010U 99025MK  26170.52792545  .00000098  00000-0  60168-4 0  9996
2 30010  99.0629  13.9402 0073636  28.1064  25.6867 14.25095032  9482
Epoch: 2026-06-19T12:40Z
TLE epoch observation values (Epoch: 2026-06-19T12:40:12.758Z)
Latitude
53.28505°
Longitude
-96.15158°
Altitude
769.222 km
Speed
7.499 km/s
True Right ascension
00h 06m 37s
True Declination
53° 07' 13"
Sunlit
Object was in daylight at epoch
Visualization orbit readout
Latitude
Unknown
Longitude
Unknown
Altitude
Unknown
Speed
Unknown
Apparent Right ascension
Unknown
Apparent Declination
Unknown
Sunlit
N/A
Visualization observer readout
Local Sidereal Time
08:48:06
Azimuth
Unknown
Elevation
Unknown
Doppler factor
Unknown
Orbital elements
Apogee altitude
858.238 km
Perigee altitude
752.446 km
Semi-major axis
7,183.479 km
Eccentricity
0.00736
Inclination
99.0629°
RAAN
13.9402°
Arg. of periapsis
28.1064°
True anomaly
26.0555°
Mean anomaly
25.6867°
Eccentric anomaly
25.87079°
Mean motion
3.56485 °/min
Orbital period
100.99 mins
BSTAR
0.000060168
Loading maneuver chart data...
Computing Atmospheric mass density...

Documentation

Showing up to 5 results
|